Weather History for Jackson, WY

Change the Weather History Date:

Monday, January 21, 2013

  Actual Average Record
Temperature  
Mean Temperature 7 °F -  
Max Temperature 19 °F 25 °F 62 °F (2009)
Min Temperature -5 °F -1 °F -32 °F (1984)
Degree Days  
Heating Degree Days 58    
Moisture  
Dew Point 1 °F    
Average Humidity 89    
Maximum Humidity 100    
Minimum Humidity 68    
Precipitation  
Precipitation 0.00 in - - ()
Sea Level Pressure  
Sea Level Pressure 30.31 in    
Wind  
Wind Speed 5 mph (NNE)    
Max Wind Speed 12 mph    
Max Gust Speed -    
Visibility 10 miles    
Events      
Averages and records for this station are not official NWS values.
T = Trace of Precipitation, MM = Missing Value Source: NWS Daily Summary

Daily Weather History Graph

Daily Weather History Graph

Search for Another Location

Airport:

Trip Planner

Search our weather history database for the weather conditions in past years. The results will help you decide how hot, cold, wet, or windy it might be!

Date:

Astronomy

Jan. 21, 2013 Rise Set
Actual Time 7:49 AM MST 5:19 PM MST
Civil Twilight 7:17 AM MST 5:51 PM MST
Nautical Twilight 6:42 AM MST 6:26 PM MST
Astronomical Twilight 6:08 AM MST 7:00 PM MST
Moon 1:01 PM MST 3:21 AM MST
Length of Visible Light 10h 33m
Length of Day
9h 30m
Waxing Gibbous, 75% of the Moon is Illuminated
Jan 21
Waxing Gibbous
Jan 26
Full
Feb 3
Last Quarter
Feb 10
New
Feb 17
First Quarter

Hourly Weather History & Observations

Time (MST) Temp. Windchill Dew Point Humidity Pressure Visibility Wind Dir Wind Speed Gust Speed Precip Events Conditions
12:15 AM 1.4 °F -9.9 °F -0.4 °F 92% 30.34 in 10.0 mi NNE 5.8 mph - N/A   Clear
12:35 AM 1.4 °F -11.3 °F 1.4 °F 100% 30.34 in 10.0 mi NNE 6.9 mph - N/A   Clear
12:55 AM 1.4 °F -8.3 °F 1.4 °F 100% 30.33 in 10.0 mi North 4.6 mph - N/A   Clear
1:15 AM -0.4 °F -14.7 °F -2.2 °F 92% 30.33 in 10.0 mi NNE 8.1 mph - N/A   Clear
1:35 AM -0.4 °F -10.4 °F -0.4 °F 100% 30.33 in 10.0 mi NNE 4.6 mph - N/A   Clear
2:15 AM -2.2 °F -15.6 °F -4.0 °F 92% 30.34 in 10.0 mi North 6.9 mph - N/A   Clear
2:35 AM -2.2 °F -12.5 °F -4.0 °F 92% 30.34 in 10.0 mi NE 4.6 mph - N/A   Clear
2:55 AM -0.4 °F -12.0 °F -2.2 °F 92% 30.34 in 10.0 mi North 5.8 mph - N/A   Clear
3:15 AM -4.0 °F -12.4 °F -5.8 °F 92% 30.34 in 10.0 mi NNE 3.5 mph - N/A   Clear
3:35 AM -4.0 °F -17.8 °F -5.8 °F 92% 30.33 in 10.0 mi NNE 6.9 mph - N/A   Clear
3:55 AM -5.8 °F -22.4 °F -5.8 °F 100% 30.34 in 10.0 mi North 9.2 mph - N/A   Clear
4:35 AM -2.2 °F -10.4 °F -5.8 °F 85% 30.33 in 10.0 mi NE 3.5 mph - N/A   Clear
4:55 AM -2.2 °F -15.6 °F -4.0 °F 92% 30.34 in 10.0 mi NNW 6.9 mph - N/A   Clear
5:15 AM -4.0 °F -17.8 °F -5.8 °F 92% 30.34 in 10.0 mi NE 6.9 mph - N/A   Clear
5:35 AM -2.2 °F - -4.0 °F 92% 30.34 in 10.0 mi Calm Calm - N/A   Clear
5:55 AM -2.2 °F -15.6 °F -4.0 °F 92% 30.34 in 10.0 mi North 6.9 mph - N/A   Mostly Cloudy
6:15 AM -5.8 °F -18.4 °F -7.6 °F 92% 30.34 in 10.0 mi North 5.8 mph - N/A   Scattered Clouds
6:35 AM -4.0 °F -12.4 °F -5.8 °F 92% 30.34 in 10.0 mi NE 3.5 mph - N/A   Clear
6:53 AM -2.2 °F - -2.2 °F 100% 30.33 in 10.0 mi Calm Calm - N/A   Clear
7:55 AM -5.8 °F -16.7 °F -7.6 °F 92% 30.35 in 10.0 mi North 4.6 mph - N/A   Clear
8:53 AM -4.0 °F -12.4 °F -5.8 °F 92% 30.35 in 10.0 mi NE 3.5 mph - N/A   Clear
10:57 AM 6.8 °F -0.1 °F 3.2 °F 85% 30.36 in 10.0 mi East 3.5 mph - N/A   Clear
11:51 AM 12.2 °F - 6.8 °F 79% 30.35 in 10.0 mi Calm Calm - N/A   Clear
12:54 PM 17.6 °F - 8.6 °F 68% 30.31 in 10.0 mi Calm Calm - N/A   Clear
1:51 PM 17.6 °F - 10.4 °F 73% 30.30 in 10.0 mi Calm Calm - N/A   Clear
2:51 PM 19.4 °F - 12.2 °F 74% 30.28 in 10.0 mi Calm Calm - N/A   Clear
3:59 PM 17.6 °F - 12.2 °F 79% 30.27 in 10.0 mi Calm Calm - N/A   Clear
4:51 PM 17.6 °F 12.3 °F 10.4 °F 73% 30.25 in 10.0 mi SE 3.5 mph - N/A   Clear
5:51 PM 12.2 °F 1.7 °F 8.6 °F 85% 30.24 in 10.0 mi North 6.9 mph - N/A   Clear
6:51 PM 6.8 °F -2.0 °F 3.2 °F 85% 30.25 in 10.0 mi North 4.6 mph - N/A   Clear
7:51 PM 8.6 °F -1.3 °F 5.0 °F 85% 30.26 in 10.0 mi North 5.8 mph - N/A   Clear
8:53 PM 6.8 °F -3.5 °F 3.2 °F 85% 30.27 in 10.0 mi North 5.8 mph - N/A   Clear
8:55 PM 5.0 °F -5.6 °F 1.4 °F 85% 30.27 in 10.0 mi NNE 5.8 mph - N/A   Clear
9:15 PM 5.0 °F - 3.2 °F 92% 30.27 in 10.0 mi Calm Calm - N/A   Clear
9:35 PM 6.8 °F - 3.2 °F 85% 30.27 in 10.0 mi Calm Calm - N/A   Clear
9:55 PM 5.0 °F -10.8 °F 3.2 °F 92% 30.27 in 10.0 mi North 11.5 mph - N/A   Clear
10:35 PM 5.0 °F -6.9 °F 3.2 °F 92% 30.28 in 10.0 mi North 6.9 mph - N/A   Clear
10:55 PM 3.2 °F - 1.4 °F 92% 30.28 in 10.0 mi Calm Calm - N/A   Clear
11:15 PM 3.2 °F -4.2 °F 3.2 °F 100% 30.28 in 10.0 mi North 3.5 mph - N/A   Clear